Goldsboro, NC

4:12 PM EDT on April 23, 2017 (GMT -0400)
Goldsboro-Wayne Municipal

Weather History for KGWW - March, 2013

Change the Weather History Date:

Wednesday, March 6, 2013

  Actual Average (KGSB) Record (KGSB)
Temperature  
Mean Temperature 46 °F -  
Max Temperature 54 °F 59 °F 75 °F (2004)
Min Temperature 39 °F 39 °F 26 °F (2015)
Degree Days  
Heating Degree Days 19    
Moisture  
Dew Point 36 °F    
Average Humidity 73    
Maximum Humidity 100    
Minimum Humidity 51    
Precipitation  
Precipitation 0.01 in - - ()
Sea Level Pressure  
Sea Level Pressure 29.69 in    
Wind  
Wind Speed 12 mph (WNW)    
Max Wind Speed 25 mph    
Max Gust Speed 39 mph    
Visibility 10 miles    
Events Rain    
Averages and records for this station are not official NWS values.
T = Trace of Precipitation, MM = Missing Value Source: NWS Daily Summary

Daily Weather History Graph

Daily Weather History Graph

Search for Another Location

Airport or City:

Trip Planner

Search our weather history database for the weather conditions in past years. The results will help you decide how hot, cold, wet, or windy it might be!

Date:

Astronomy

Mar. 06, 2013 Rise Set
Actual Time 6:34 AM EST 6:11 PM EST
Civil Twilight 6:09 AM EST 6:37 PM EST
Nautical Twilight 5:39 AM EST 7:06 PM EST
Astronomical Twilight 5:10 AM EST 7:36 PM EST
Moon 2:33 AM EST (3/6) 1:00 PM EST (3/6)
Length of Visible Light 12h 28m
Length of Day
11h 37m
Waning Crescent, 30% of the Moon is Illuminated
Mar 6
Waning Crescent
Mar 11
New
Mar 19
First Quarter
Mar 27
Full
Apr 3
Last Quarter

Hourly Weather History & Observations

Time (EST) Temp. Windchill Dew Point Humidity Pressure Visibility Wind Dir Wind Speed Gust Speed Precip Events Conditions
12:15 AM 47.8 °F - 47.7 °F 99% 29.59 in 5.0 mi Calm Calm - N/A   Overcast
12:35 AM 47.7 °F - 47.7 °F 100% 29.57 in 7.0 mi Calm Calm - N/A   Overcast
12:55 AM 46.9 °F - 46.9 °F 100% 29.55 in 3.0 mi SE 4.6 mph - N/A   Overcast
1:15 AM 46.9 °F - 46.9 °F 100% 29.54 in 7.0 mi Calm Calm - N/A   Mostly Cloudy
1:35 AM 47.7 °F - 47.7 °F 100% 29.53 in 7.0 mi Calm Calm - N/A   Scattered Clouds
1:55 AM 48.6 °F - 48.6 °F 100% 29.52 in 7.0 mi SSW 4.6 mph - N/A   Mostly Cloudy
2:15 AM 51.1 °F - 51.1 °F 100% 29.51 in 10.0 mi SSW 10.4 mph - N/A   Scattered Clouds
2:35 AM 53.1 °F - 53.1 °F 100% 29.50 in 10.0 mi SW 13.8 mph - N/A   Mostly Cloudy
2:55 AM 53.8 °F - 52.5 °F 95% 29.49 in 10.0 mi SW 17.3 mph 20.7 mph N/A   Overcast
3:15 AM 53.8 °F - 51.1 °F 91% 29.49 in 10.0 mi SW 15.0 mph 18.4 mph N/A   Overcast
3:35 AM 53.6 °F - 50.7 °F 90% 29.48 in 10.0 mi SW 10.4 mph - N/A   Overcast
3:55 AM 52.9 °F - 50.2 °F 91% 29.49 in 10.0 mi WSW 16.1 mph 23.0 mph N/A   Overcast
4:15 AM 52.3 °F - 46.8 °F 81% 29.49 in 10.0 mi WSW 15.0 mph 23.0 mph N/A   Overcast
4:35 AM 51.4 °F - 46.6 °F 83% 29.50 in 10.0 mi West 18.4 mph 24.2 mph N/A   Overcast
4:55 AM 49.1 °F - 43.9 °F 82% 29.51 in 10.0 mi West 17.3 mph 27.6 mph N/A   Overcast
5:15 AM 46.8 °F - 43.9 °F 90% 29.53 in 10.0 mi West 17.3 mph 28.8 mph N/A   Overcast
5:35 AM 44.4 °F 37.9 °F 40.1 °F 85% 29.54 in 7.0 mi WNW 13.8 mph 26.5 mph N/A   Light Drizzle
5:55 AM 43.7 °F 37.7 °F 40.5 °F 88% 29.55 in 10.0 mi West 11.5 mph 18.4 mph N/A Rain Light Rain
6:15 AM 43.0 °F 36.4 °F 38.5 °F 84% 29.56 in 10.0 mi West 12.7 mph 21.9 mph N/A   Overcast
6:35 AM 42.1 °F 34.2 °F 36.7 °F 81% 29.58 in 10.0 mi WNW 16.1 mph 34.5 mph 0.01 in Rain Light Rain
6:55 AM 40.6 °F 32.0 °F 35.8 °F 83% 29.59 in 10.0 mi WNW 17.3 mph 26.5 mph 0.01 in   Overcast
7:15 AM 40.1 °F 31.6 °F 34.5 °F 80% 29.59 in 10.0 mi WNW 16.1 mph 21.9 mph N/A   Overcast
7:35 AM 39.7 °F 30.9 °F 33.6 °F 79% 29.60 in 10.0 mi WNW 17.3 mph 26.5 mph N/A   Overcast
7:55 AM 40.1 °F 33.6 °F 34.2 °F 79% 29.61 in 10.0 mi West 10.4 mph 18.4 mph N/A   Overcast
8:15 AM 40.5 °F 33.2 °F 33.6 °F 77% 29.61 in 10.0 mi West 12.7 mph 20.7 mph N/A   Overcast
8:35 AM 40.6 °F 33.4 °F 33.8 °F 77% 29.62 in 10.0 mi West 12.7 mph 19.6 mph N/A   Overcast
8:55 AM 40.8 °F 32.3 °F 34.0 °F 77% 29.62 in 10.0 mi West 17.3 mph 28.8 mph N/A   Overcast
9:15 AM 41.0 °F 32.8 °F 33.1 °F 73% 29.62 in 10.0 mi West 16.1 mph 31.1 mph N/A   Overcast
9:35 AM 41.0 °F 34.3 °F 32.9 °F 73% 29.63 in 10.0 mi West 11.5 mph 25.3 mph N/A   Overcast
9:55 AM 40.6 °F 33.4 °F 31.3 °F 69% 29.63 in 10.0 mi West 12.7 mph 23.0 mph N/A   Overcast
10:15 AM 41.4 °F 33.3 °F 30.9 °F 66% 29.63 in 10.0 mi WNW 16.1 mph 27.6 mph N/A   Overcast
10:35 AM 41.2 °F 33.4 °F 30.4 °F 65% 29.63 in 10.0 mi West 15.0 mph 24.2 mph N/A   Overcast
10:55 AM 41.9 °F 33.7 °F 29.3 °F 61% 29.64 in 10.0 mi West 17.3 mph 32.2 mph N/A   Overcast
11:15 AM 43.0 °F 35.1 °F 29.3 °F 59% 29.63 in 10.0 mi West 17.3 mph 29.9 mph N/A   Overcast
11:35 AM 42.8 °F 34.0 °F 27.3 °F 54% 29.64 in 10.0 mi West 20.7 mph 31.1 mph N/A   Overcast
11:55 AM 43.0 °F 34.5 °F 27.3 °F 54% 29.64 in 10.0 mi WNW 19.6 mph 31.1 mph N/A   Overcast
12:15 PM 44.6 °F 35.9 °F 28.2 °F 53% 29.64 in 10.0 mi West 23.0 mph 35.7 mph N/A   Overcast
12:35 PM 45.1 °F 37.3 °F 27.9 °F 51% 29.64 in 10.0 mi West 19.6 mph 33.4 mph N/A   Overcast
12:55 PM 43.5 °F 34.3 °F 28.2 °F 55% 29.65 in 10.0 mi WNW 24.2 mph 34.5 mph N/A   Overcast
1:15 PM 42.8 °F 34.8 °F 28.0 °F 56% 29.65 in 10.0 mi West 17.3 mph 27.6 mph N/A   Overcast
1:35 PM 43.7 °F 35.4 °F 28.0 °F 54% 29.64 in 10.0 mi West 19.6 mph 29.9 mph N/A   Overcast
1:55 PM 43.7 °F 35.2 °F 27.3 °F 53% 29.65 in 10.0 mi West 20.7 mph 35.7 mph N/A   Overcast
2:15 PM 44.4 °F 37.9 °F 27.7 °F 52% 29.65 in 10.0 mi WNW 13.8 mph 29.9 mph N/A   Overcast
2:35 PM 45.9 °F 37.2 °F 28.4 °F 51% 29.66 in 10.0 mi WNW 25.3 mph 34.5 mph N/A   Overcast
2:55 PM 45.9 °F 37.2 °F 29.3 °F 52% 29.66 in 10.0 mi WNW 25.3 mph 36.8 mph N/A   Overcast
3:15 PM 45.9 °F 39.7 °F 30.7 °F 56% 29.68 in 10.0 mi WNW 13.8 mph 31.1 mph N/A   Overcast
3:35 PM 45.5 °F 37.1 °F 31.3 °F 58% 29.69 in 10.0 mi NW 23.0 mph 34.5 mph N/A   Overcast
3:55 PM 45.5 °F 38.1 °F 31.6 °F 58% 29.71 in 10.0 mi NW 18.4 mph 39.1 mph N/A   Overcast
4:15 PM 45.3 °F 37.1 °F 32.0 °F 60% 29.72 in 10.0 mi NW 21.9 mph 32.2 mph N/A   Overcast
4:35 PM 44.6 °F 36.1 °F 32.5 °F 63% 29.74 in 10.0 mi NNW 21.9 mph 36.8 mph N/A   Light Drizzle
4:55 PM 43.7 °F 36.0 °F 33.8 °F 68% 29.76 in 10.0 mi NNW 17.3 mph 31.1 mph N/A   Overcast
5:15 PM 43.0 °F 35.1 °F 34.5 °F 72% 29.78 in 10.0 mi NNW 17.3 mph 36.8 mph N/A Rain Light Rain
5:35 PM 43.3 °F 35.2 °F 34.2 °F 70% 29.79 in 10.0 mi NW 18.4 mph 31.1 mph N/A   Overcast
5:55 PM 43.3 °F 34.0 °F 34.2 °F 70% 29.82 in 10.0 mi NW 24.2 mph 36.8 mph N/A   Overcast
6:15 PM 43.3 °F 35.8 °F 34.2 °F 70% 29.84 in 10.0 mi NNW 16.1 mph 33.4 mph N/A   Overcast
6:35 PM 43.3 °F 35.8 °F 34.7 °F 72% 29.85 in 10.0 mi NW 16.1 mph 31.1 mph N/A   Overcast
6:55 PM 42.8 °F 35.1 °F 35.8 °F 76% 29.87 in 10.0 mi NW 16.1 mph 23.0 mph N/A   Overcast
7:15 PM 42.1 °F 34.5 °F 36.5 °F 81% 29.89 in 10.0 mi NW 15.0 mph 25.3 mph N/A   Overcast
7:35 PM 41.9 °F 34.3 °F 36.5 °F 81% 29.90 in 10.0 mi NNW 15.0 mph 21.9 mph N/A   Overcast
8:15 PM 41.9 °F 35.9 °F 36.5 °F 81% 29.92 in 10.0 mi NNW 10.4 mph 19.6 mph N/A   Overcast
8:35 PM 43.0 °F 35.7 °F 33.1 °F 68% 29.93 in 10.0 mi NNW 15.0 mph 27.6 mph N/A   Overcast
8:55 PM 43.3 °F 35.5 °F 32.4 °F 65% 29.94 in 10.0 mi NNW 17.3 mph 31.1 mph N/A   Overcast
9:15 PM 43.3 °F 34.7 °F 32.0 °F 64% 29.95 in 10.0 mi North 20.7 mph 29.9 mph N/A   Overcast
9:35 PM 43.3 °F 36.1 °F 32.0 °F 64% 29.96 in 10.0 mi North 15.0 mph 35.7 mph N/A   Overcast
9:55 PM 43.2 °F 35.0 °F 32.0 °F 65% 29.96 in 10.0 mi North 18.4 mph 28.8 mph N/A   Overcast
10:15 PM 42.8 °F 34.8 °F 32.0 °F 66% 29.97 in 10.0 mi NNW 17.3 mph 24.2 mph N/A   Overcast
10:35 PM 42.1 °F 35.2 °F 31.6 °F 67% 29.97 in 10.0 mi NNW 12.7 mph 18.4 mph N/A   Mostly Cloudy
10:55 PM 41.9 °F 36.9 °F 31.5 °F 66% 29.97 in 10.0 mi NNW 8.1 mph 17.3 mph N/A   Scattered Clouds
11:15 PM 41.5 °F 35.9 °F 31.1 °F 66% 29.97 in 10.0 mi NNW 9.2 mph - N/A   Clear
11:35 PM 41.5 °F 35.0 °F 30.9 °F 66% 29.97 in 10.0 mi NW 11.5 mph 18.4 mph N/A   Clear
11:55 PM 41.7 °F 34.1 °F 30.2 °F 64% 29.98 in 10.0 mi NNW 15.0 mph 21.9 mph N/A   Clear